Wind_Speed
20 19 19 19 19 20 19 19 19 18 18 18 18 20 19 19 19 17 16 16 17 17 17 18 18 17 17 18 18 19 19 20 20 21 23 25 27 28 29 31 33 34 34 34 34 34 35 34 34 34 34 33 33 32 32 31 30 30 31 31 31 31 31 30 30 31 31 31 31 31 31 31 30 29 27 27 26 26 25 25 24 24 23 23 22
19 20 19 19 20 20 20 20 20 20 20 20 20 20 20 21 21 20 18 18 19 19 19 19 19 18 18 19 19 20 20 21 22 22 24 26 28 29 31 32 33 34 34 35 35 35 35 35 35 35 34 33 32 31 31 31 30 30 30 31 31 31 31 30 30 30 31 31 31 30 31 32 31 30 28 27 27 26 26 26 25 25 24 24 24
20 21 20 20 20 20 21 21 21 21 21 21 20 20 21 22 22 22 21 21 21 21 20 21 20 20 20 20 20 20 21 22 23 24 25 26 28 30 32 33 34 34 34 35 35 35 35 35 35 35 34 33 32 31 31 31 30 30 30 30 31 31 30 30 30 30 30 31 31 31 32 32 32 32 30 28 27 27 27 27 26 25 25 25 25
21 21 20 20 20 20 20 21 21 21 21 21 20 20 20 22 22 22 23 22 22 21 21 21 21 21 20 20 20 21 21 23 24 26 27 28 29 30 32 33 34 35 35 35 35 35 35 35 35 34 34 33 32 32 31 31 31 31 30 31 31 31 30 29 29 30 30 30 31 31 32 33 32 32 32 31 29 28 27 28 27 26 26 26 26
22 21 20 20 20 20 20 20 21 21 20 20 20 20 20 20 21 22 22 22 22 22 22 22 21 21 20 20 20 21 22 24 25 27 29 30 32 32 33 33 33 34 35 34 34 34 34 34 34 34 33 33 32 32 32 32 32 32 32 31 31 31 30 30 29 30 31 31 31 31 33 34 33 32 33 34 33 30 28 28 28 27 27 26 26
21 21 20 19 19 18 18 19 19 19 19 19 19 19 19 19 20 20 21 21 22 22 22 22 21 20 20 20 21 22 24 25 27 28 30 32 33 34 34 34 33 33 33 33 33 33 34 34 34 33 33 32 32 32 32 32 32 33 33 33 32 32 32 32 31 32 33 34 34 33 34 35 35 33 34 34 35 34 31 29 28 28 28 27 27
21 20 19 18 17 17 17 18 18 19 19 19 19 19 19 19 18 19 20 21 21 22 22 21 21 21 21 21 22 23 25 26 28 29 31 32 34 34 34 34 34 33 32 32 33 33 34 34 33 33 33 33 33 33 33 33 33 33 34 34 34 34 34 35 35 35 35 35 35 35 35 36 36 35 35 35 35 36 35 32 30 29 29 29 28
20 20 19 18 17 17 17 17 17 18 19 20 19 19 18 18 18 18 19 19 20 20 20 20 21 21 21 22 23 25 26 27 29 30 32 33 34 34 34 33 33 33 33 33 33 33 33 34 34 33 33 33 33 34 34 34 34 35 35 35 35 36 36 37 37 37 37 37 37 36 35 36 37 36 36 36 36 36 37 36 34 31 29 29 29
21 20 20 19 18 17 17 17 17 18 19 19 18 18 17 17 17 17 18 19 19 19 19 20 21 22 22 23 24 26 27 28 30 32 33 33 33 33 33 32 32 33 33 34 34 34 34 34 34 34 34 35 35 35 35 35 35 36 36 36 36 37 38 38 38 39 39 39 39 38 37 37 37 37 37 37 37 36 37 38 37 35 32 30 30
21 21 21 21 19 18 17 17 17 17 18 18 17 17 17 17 17 17 18 19 19 19 20 21 22 22 23 25 26 27 28 30 31 32 33 33 32 32 32 32 33 33 34 34 34 34 34 34 34 35 35 35 35 35 36 36 36 37 37 38 38 39 39 39 40 40 41 41 41 41 40 40 39 39 38 38 38 37 37 38 38 38 35 32 31
22 22 22 21 20 18 17 17 17 17 17 17 17 17 17 17 17 16 17 18 19 20 21 21 22 23 24 25 27 28 29 30 31 32 32 32 31 31 32 32 33 34 34 34 34 34 34 35 35 35 35 35 36 36 36 37 37 38 38 39 40 40 41 41 42 42 43 43 43 43 43 43 42 41 41 40 40 38 38 39 39 39 38 36 33
22 21 21 21 19 18 18 18 18 18 18 17 17 17 16 16 15 15 16 17 18 19 20 21 21 22 24 26 27 28 30 30 31 31 31 31 31 31 32 32 33 34 34 34 34 35 35 35 35 35 35 35 35 36 36 37 38 39 40 41 42 43 43 44 44 44 45 45 45 45 45 45 45 44 44 43 42 40 39 39 40 40 40 39 36
21 21 21 20 19 19 19 19 19 18 18 18 17 17 16 15 15 16 17 18 19 19 20 21 22 23 25 26 27 29 30 30 31 31 31 31 31 32 32 33 33 34 34 34 35 35 35 35 35 35 35 35 35 36 37 38 40 41 42 43 44 44 45 45 46 46 46 47 47 47 47 46 46 46 46 46 45 43 42 41 41 40 40 41 39
21 21 21 20 20 19 19 19 19 19 19 18 18 17 17 16 16 17 18 18 19 19 20 21 23 24 26 27 28 29 30 30 30 30 31 31 32 33 33 34 34 34 34 34 35 35 35 34 34 34 35 35 36 37 39 40 41 42 43 44 45 45 46 47 47 48 48 49 49 49 48 48 48 47 47 47 47 46 45 43 42 42 41 42 42
22 22 22 21 20 19 19 19 19 19 19 19 19 18 17 16 16 17 17 18 19 20 22 23 24 25 27 27 28 29 30 30 30 31 31 32 33 33 34 34 35 35 35 34 34 34 34 34 34 34 35 37 38 39 41 42 43 43 44 45 46 46 47 48 49 50 50 51 51 51 51 51 51 50 49 49 49 48 47 46 45 44 42 42 42
22 22 22 21 20 19 19 19 19 20 20 20 19 16 15 15 16 16 17 18 19 21 22 24 25 26 28 28 28 27 28 29 31 31 32 33 34 34 34 35 34 34 34 34 34 34 34 34 35 36 37 39 40 41 42 43 44 44 45 46 47 48 50 51 52 53 53 54 54 55 55 54 54 54 53 52 51 51 50 49 47 46 45 43 42
21 21 21 20 19 19 19 20 21 21 21 21 18 14 13 14 15 16 17 19 20 21 23 25 26 27 28 28 28 28 28 29 30 32 32 33 34 34 34 34 34 34 34 34 34 34 34 35 36 38 39 40 41 42 43 44 45 46 47 49 50 52 53 55 56 56 57 58 58 58 58 58 57 57 57 56 55 53 52 52 50 49 47 46 44
20 20 20 19 19 19 20 22 22 23 22 18 14 12 13 13 14 16 17 19 21 22 23 25 26 26 27 28 29 30 30 31 31 32 33 33 33 33 33 34 34 34 34 34 35 35 35 37 38 39 40 41 42 44 45 46 47 49 51 53 54 56 57 58 59 60 60 60 60 60 60 59 59 59 59 58 58 57 55 54 53 52 50 48 47
20 20 20 19 19 21 22 23 22 20 17 13 11 11 12 13 14 16 18 20 21 22 23 24 25 25 27 28 30 31 32 32 33 33 33 33 33 34 34 34 34 34 35 35 35 36 37 39 40 41 41 42 44 45 46 48 50 52 54 57 59 60 61 61 62 61 60 60 58 58 57 57 57 57 57 57 57 58 57 56 55 54 53 52 50
21 20 20 19 20 21 22 19 15 12 11 10 10 11 12 13 15 17 19 20 21 22 22 23 24 26 27 29 30 31 32 33 34 34 34 34 33 33 33 34 34 35 36 36 37 38 39 40 41 42 43 43 45 46 48 50 53 55 58 60 62 62 62 62 60 59 57 55 54 53 53 53 53 53 53 53 54 55 55 56 56 55 55 54 53
21 20 20 19 19 21 19 14 11 10 10 10 10 11 12 14 16 18 19 20 21 21 22 23 25 26 28 29 30 31 32 33 34 34 35 35 34 33 33 33 33 34 35 36 37 38 39 40 41 42 43 44 45 47 49 52 55 58 60 61 62 61 60 58 56 54 53 52 52 52 52 52 51 51 51 51 51 51 52 53 54 55 55 55 54
20 20 19 18 18 18 15 12 10 10 10 10 10 12 14 15 16 18 19 19 20 21 23 24 26 27 28 29 31 32 33 33 34 34 34 34 35 34 34 34 34 34 35 36 37 38 39 40 41 42 43 44 46 49 52 55 57 60 61 61 60 59 56 54 53 52 52 52 52 52 52 52 51 50 49 50 50 50 50 50 51 52 53 54 55
20 20 18 18 17 16 13 11 11 11 11 11 12 14 15 16 17 18 18 19 21 22 24 25 26 28 29 30 31 32 33 33 33 33 33 34 34 35 36 36 36 35 36 37 38 39 40 41 41 42 43 45 48 51 54 57 59 60 60 60 58 56 54 53 53 53 52 51 51 50 50 49 49 48 47 47 47 48 49 49 49 50 51 52 53
20 18 16 17 17 16 13 12 12 11 12 13 14 15 15 16 17 18 19 20 21 23 24 26 27 28 29 30 31 32 32 32 32 33 33 34 34 35 35 36 36 36 36 37 38 39 40 41 42 42 44 46 50 53 56 58 60 60 58 57 55 54 54 54 54 54 52 51 49 47 45 45 45 46 45 44 44 44 46 47 48 48 49 50 50
18 16 17 18 17 15 13 13 13 12 13 14 15 15 16 16 17 18 19 21 22 24 25 26 27 28 29 30 31 31 32 32 32 32 33 34 34 35 35 35 36 37 37 37 38 39 40 40 41 42 44 48 51 54 57 59 58 57 55 54 53 54 54 55 55 55 54 52 48 43 40 40 41 42 42 41 41 42 42 43 45 47 47 48 48
17 16 17 18 17 15 13 13 13 13 14 15 15 16 16 17 18 19 20 22 23 24 25 26 27 28 29 30 31 31 32 32 32 33 33 33 34 34 35 35 36 37 37 38 38 40 40 40 41 43 46 49 53 55 57 57 55 53 51 51 52 53 54 56 56 56 55 53 48 42 39 37 37 38 39 38 37 37 39 39 40 43 45 46 46
17 17 17 17 16 15 14 14 14 15 16 16 16 17 17 17 18 20 21 23 24 25 26 26 27 28 29 30 31 31 32 32 32 32 32 32 33 34 34 35 35 36 37 38 38 39 40 40 41 45 48 51 53 54 55 53 50 49 49 50 51 53 54 56 57 57 56 52 47 42 40 36 34 34 34 35 34 33 34 36 36 38 41 43 44
17 16 17 17 17 16 16 15 16 16 17 17 17 17 17 18 19 21 22 23 24 25 26 27 27 29 30 31 31 32 32 32 32 32 32 32 33 33 34 35 35 36 37 38 39 38 39 40 42 45 49 51 53 52 51 49 47 46 47 49 50 52 54 56 57 57 55 51 45 42 40 37 35 32 31 31 32 32 31 31 32 34 36 39 41
17 17 18 18 17 17 17 16 17 17 17 17 17 17 18 19 20 21 23 24 25 25 26 27 28 29 30 31 32 32 32 32 31 31 31 32 32 33 33 34 34 36 37 38 39 38 38 40 43 46 49 51 52 50 48 46 45 46 47 48 49 50 52 54 55 56 54 51 45 42 40 38 37 34 31 28 28 30 31 30 29 30 32 34 37
18 19 19 18 17 18 17 17 17 18 18 18 18 18 19 20 21 22 23 24 25 25 26 27 28 29 31 31 32 32 32 31 31 31 32 32 32 32 32 33 34 35 37 38 38 38 38 40 43 46 49 50 50 49 46 45 45 45 45 46 48 49 50 51 53 55 54 51 47 43 41 38 37 35 32 28 25 26 29 29 28 27 28 31 34
19 19 18 18 18 18 18 18 18 18 18 18 18 19 19 20 21 22 23 24 25 25 26 27 28 29 31 31 32 32 31 31 31 32 32 32 31 31 32 33 34 36 37 37 37 37 38 40 43 46 48 49 49 47 45 44 44 44 44 45 47 48 49 50 52 53 54 52 49 44 40 38 36 35 32 28 25 24 25 27 27 26 25 27 30
18 18 18 18 18 18 18 19 19 19 19 19 19 19 20 21 21 22 23 24 25 25 26 27 28 30 31 31 31 31 31 31 32 32 32 31 30 31 31 33 34 36 37 37 37 37 38 40 42 45 47 48 48 46 44 42 43 43 43 43 45 47 48 49 51 52 53 52 49 45 40 38 36 34 32 30 27 24 23 23 25 25 24 24 26
18 18 18 18 18 19 20 20 20 20 20 20 20 20 21 21 21 22 24 24 25 26 26 27 28 30 31 31 31 31 31 32 32 32 31 30 30 31 31 33 34 36 37 37 36 37 38 40 42 44 46 47 47 46 43 41 41 41 42 42 44 46 48 48 49 51 51 51 50 48 42 37 35 33 32 30 29 26 24 22 22 23 23 23 22
18 18 18 18 19 20 21 21 21 21 21 21 21 21 21 21 22 23 24 25 26 26 27 27 29 30 31 31 31 31 31 32 32 32 30 30 30 30 31 33 34 36 36 36 36 37 38 40 41 43 45 46 46 45 42 40 40 40 40 41 43 45 47 48 49 49 50 51 50 47 43 38 34 32 32 31 30 29 27 24 21 21 22 23 22
18 18 19 19 20 21 21 22 22 22 22 22 22 22 22 22 23 24 25 26 26 27 27 28 29 30 31 31 31 31 31 32 32 31 30 29 30 30 31 32 34 35 36 36 36 37 38 40 41 42 44 45 45 43 41 40 40 40 40 41 42 44 46 47 48 49 49 50 50 47 43 39 35 33 32 31 31 30 29 28 25 22 21 22 23
19 19 19 20 21 22 23 23 23 23 23 23 23 22 22 23 24 24 25 27 28 28 29 28 29 30 31 31 31 31 31 31 31 31 30 29 29 30 31 32 33 35 36 36 36 37 38 40 41 42 43 44 44 42 40 39 39 39 40 40 41 43 45 47 48 48 49 49 50 49 46 40 36 33 32 31 30 30 29 28 28 26 22 20 20
20 20 21 22 23 23 24 24 24 24 24 24 24 23 23 24 25 25 26 28 29 29 30 29 29 30 31 31 31 31 31 31 31 30 29 29 29 30 31 32 33 35 36 36 37 37 38 39 40 41 41 42 42 41 40 39 39 39 39 40 41 42 44 46 47 48 49 49 49 50 48 43 38 35 33 32 31 30 29 28 27 27 25 22 19
22 22 23 24 24 25 25 25 25 25 25 25 25 24 25 25 26 26 27 29 30 30 31 30 29 31 31 31 31 31 31 31 31 30 29 29 30 30 31 32 33 35 36 37 37 37 38 39 40 40 40 41 41 40 39 39 39 39 39 39 40 41 43 45 47 48 49 49 49 49 49 46 40 35 32 32 31 31 31 30 28 27 26 26 24
24 25 25 25 25 26 26 26 26 26 26 26 25 25 26 27 27 27 28 29 30 31 32 30 30 31 31 32 31 31 31 31 31 30 29 29 30 31 32 33 34 35 36 37 37 37 38 38 39 39 40 40 40 39 39 39 39 40 39 39 39 40 42 44 46 48 48 48 48 49 49 46 41 34 30 29 29 30 31 32 31 30 29 29 28
26 26 26 26 26 27 27 28 27 27 27 27 26 27 27 28 28 28 29 31 31 32 32 31 30 31 32 32 32 32 31 31 31 30 30 30 31 32 33 33 34 35 36 37 37 37 38 38 39 39 39 39 39 39 39 39 39 40 40 40 39 39 40 43 46 47 48 47 48 48 48 47 43 37 31 28 29 30 32 32 32 32 32 32 32
28 27 27 27 27 28 29 29 29 28 28 27 27 28 28 28 29 30 31 32 32 32 32 31 30 31 32 32 32 32 32 31 31 31 31 31 31 32 33 34 34 35 37 37 37 37 37 38 38 38 39 39 39 39 40 40 40 40 40 40 39 39 40 42 45 47 47 47 47 47 48 47 46 41 35 31 31 33 33 33 33 33 33 34 34
28 28 27 28 28 29 30 30 30 30 29 29 29 29 29 29 30 31 32 33 33 32 32 31 30 31 32 33 33 33 32 31 31 32 32 32 32 33 34 34 34 35 36 37 38 38 37 37 38 38 39 39 40 40 41 41 41 41 40 39 38 38 39 41 43 46 47 47 46 47 47 47 47 44 39 36 35 36 36 36 36 36 35 34 34
29 28 28 29 29 29 30 30 31 31 31 30 30 30 30 31 31 32 33 33 33 32 33 32 30 31 33 33 33 33 32 32 32 33 33 33 33 33 34 34 35 35 36 37 38 38 37 37 38 39 40 40 40 41 42 42 41 40 40 39 38 38 39 41 42 45 47 47 47 47 48 48 49 47 42 38 38 39 40 41 40 39 38 36 34
29 29 29 29 30 30 30 31 32 32 32 32 32 32 32 32 33 33 34 34 33 32 33 32 31 31 33 33 33 33 32 32 32 33 34 34 34 34 34 34 35 35 36 37 38 38 38 38 38 39 40 41 41 42 42 41 41 40 40 39 38 38 39 41 43 45 47 48 48 47 48 49 50 49 46 42 41 42 43 43 43 41 38 35 34
29 29 29 30 31 31 32 32 33 33 33 33 34 34 34 34 34 35 35 34 33 33 32 32 31 32 33 34 34 33 32 32 32 33 34 35 35 35 35 35 35 36 37 38 38 39 38 38 38 39 40 41 42 42 42 42 42 41 41 40 39 38 39 40 43 45 47 49 48 48 48 50 51 51 51 47 44 44 44 45 45 42 37 34 32
30 30 30 30 32 33 34 34 34 34 35 35 36 36 36 36 36 36 36 35 34 33 32 32 32 33 34 34 34 34 33 33 33 33 34 35 35 36 35 35 35 36 37 38 38 39 39 38 38 39 40 41 41 42 43 43 43 43 42 40 39 38 39 40 42 45 48 50 50 49 49 50 51 52 53 51 47 46 46 46 45 43 39 35 34
31 33 33 32 33 34 35 36 35 36 37 37 38 38 38 38 38 37 37 37 35 33 33 33 33 33 35 35 35 35 34 34 34 34 35 35 36 36 36 36 36 36 36 37 38 39 39 39 38 39 40 40 41 42 43 44 44 43 42 41 40 39 39 40 42 45 47 50 51 50 50 50 51 52 54 53 50 47 47 46 45 43 41 39 37
32 35 36 37 38 37 36 36 36 36 38 39 40 40 40 40 39 39 39 38 36 34 33 34 34 35 36 36 36 36 36 35 35 36 36 36 37 37 38 38 37 37 37 38 39 40 40 40 39 39 40 40 41 43 43 43 42 42 41 41 40 40 39 40 41 44 46 49 51 51 50 51 51 52 53 55 53 48 46 45 44 45 46 44 42
34 37 38 39 41 41 40 38 37 37 37 38 40 41 40 39 39 39 39 38 37 35 34 35 35 36 37 38 37 38 37 37 37 38 38 38 39 39 40 40 40 39 38 38 39 39 40 40 39 39 39 40 41 42 42 42 41 41 41 41 41 40 39 40 41 43 45 48 51 51 51 51 52 52 53 55 56 52 48 47 47 50 51 48 45
36 37 38 39 41 43 43 43 41 39 38 38 39 40 40 40 39 39 39 38 37 36 35 35 36 37 38 39 39 39 39 39 40 40 40 41 41 41 41 42 42 40 39 39 39 39 39 39 39 39 39 40 40 40 41 41 42 42 42 42 42 40 40 41 41 43 45 47 50 52 52 52 53 53 53 54 56 56 53 52 52 54 53 49 46
33 33 34 36 39 42 45 48 47 43 40 40 41 42 43 43 40 38 37 37 37 36 35 36 37 38 39 40 40 40 41 41 42 42 43 43 43 42 42 42 43 42 41 40 40 39 39 38 38 37 37 37 38 39 40 41 42 43 43 43 43 42 42 42 42 43 44 47 50 52 53 52 53 54 55 55 56 57 56 54 54 55 53 50 48
Wind_Direction
276 279 281 282 282 281 280 278 276 274 273 271 273 274 274 275 277 276 274 270 272 275 274 273 274 277 280 281 283 285 286 288 290 293 297 299 299 300 301 301 302 303 305 306 306 306 306 305 305 306 306 305 305 304 304 304 304 305 305 305 304 305 305 306 306 305 303 303 303 304 304 303 303 303 301 300 298 296 295 294 292 290 290 291 292
278 279 280 281 280 281 281 281 280 279 280 278 276 273 271 271 272 275 276 273 272 276 277 278 277 279 281 282 284 286 288 291 293 295 297 299 300 300 301 302 304 305 306 307 307 306 306 306 307 306 306 305 304 304 304 304 304 305 305 304 304 304 304 304 304 303 302 302 303 304 303 303 303 304 302 300 297 295 293 292 290 288 287 286 288
280 279 280 281 282 283 284 285 285 284 284 283 280 277 272 269 268 271 274 274 273 275 277 278 279 280 282 284 287 289 292 295 297 298 298 299 301 302 303 304 305 306 306 306 306 306 306 306 307 306 305 304 304 304 304 304 304 304 304 303 302 302 302 302 302 301 301 301 302 303 302 301 301 302 303 301 297 295 292 291 289 287 285 283 284
279 279 280 283 285 285 286 286 286 287 287 286 285 282 277 271 268 269 271 273 275 278 280 280 280 282 283 287 290 293 297 298 299 300 300 300 300 302 303 304 305 305 305 305 305 305 305 306 305 305 304 304 305 305 305 305 305 304 303 302 301 300 299 300 300 300 300 299 300 301 300 298 298 299 300 300 298 295 292 290 288 286 283 282 281
278 279 283 285 287 287 287 287 288 289 289 289 287 285 282 275 270 268 269 272 276 279 281 282 283 284 286 290 293 296 297 298 299 300 300 300 301 301 302 302 303 303 304 304 304 305 305 305 304 304 304 304 305 306 306 305 304 303 302 301 300 298 298 298 298 299 298 298 298 298 297 295 294 295 296 297 297 295 293 289 287 285 282 280 279
278 282 286 287 288 288 289 289 290 290 290 289 288 286 283 276 271 268 268 270 275 279 281 282 283 285 288 290 292 294 295 296 297 298 299 300 301 302 302 302 302 302 303 304 305 305 304 304 303 304 305 306 306 306 305 304 302 301 300 300 299 298 298 297 297 296 296 296 295 295 293 292 292 291 291 291 292 293 292 289 287 284 282 279 276
281 285 288 289 289 290 291 290 289 288 288 288 287 286 281 275 272 271 271 272 275 278 280 281 284 285 287 289 291 292 293 295 296 298 299 300 301 302 303 304 304 305 305 306 305 305 304 304 305 306 306 306 306 305 304 302 301 300 299 299 299 298 298 297 297 296 295 294 294 293 291 290 290 289 288 287 287 288 289 289 286 284 281 278 275
284 287 290 292 290 289 288 287 287 286 285 286 285 284 279 274 273 273 273 274 276 277 279 281 284 286 287 289 290 292 293 295 297 298 300 301 302 302 303 304 305 306 306 306 306 305 305 305 306 307 307 306 305 304 303 301 300 299 298 298 298 297 297 297 297 296 295 294 293 292 290 288 288 287 286 285 283 283 285 286 286 283 280 278 276
287 290 293 292 290 288 286 286 285 284 283 284 285 283 277 271 269 271 273 275 276 278 281 283 284 285 286 288 290 292 295 297 299 300 301 302 302 303 304 305 306 307 307 306 306 306 306 306 307 307 307 306 305 304 302 301 300 299 299 298 298 298 297 297 296 296 295 294 293 292 290 288 287 285 284 283 282 280 280 281 283 283 280 277 275
289 292 292 289 286 284 285 286 285 283 282 284 284 280 274 269 267 270 273 275 277 279 281 281 282 284 287 290 293 295 298 299 300 300 301 302 304 304 305 306 307 307 307 306 306 306 307 307 307 307 306 305 304 303 302 301 301 300 300 300 299 299 298 298 297 296 295 294 293 292 291 289 288 286 284 282 281 279 278 277 279 280 279 277 273
289 291 288 285 284 284 285 286 285 284 282 282 281 275 270 267 268 270 273 275 276 278 279 281 284 288 292 294 296 297 297 298 299 301 303 304 305 306 307 307 308 307 307 306 307 308 308 308 308 307 306 305 304 303 302 302 301 301 301 301 301 300 300 299 299 298 297 295 294 293 292 290 289 287 285 283 281 278 277 276 275 276 277 276 273
287 288 286 285 284 284 284 284 284 283 281 279 275 270 266 264 266 269 272 274 276 278 280 283 288 291 293 294 294 296 298 300 302 304 306 307 307 307 307 307 307 307 307 308 308 309 309 308 308 306 305 304 303 303 303 303 303 303 303 303 303 303 302 301 300 299 298 297 295 294 293 291 290 289 287 285 283 280 277 275 273 272 274 274 273
284 287 289 286 282 282 283 283 284 282 279 275 270 265 261 261 265 269 273 275 276 279 282 286 289 290 292 294 297 299 302 304 306 308 308 308 308 308 307 307 308 308 309 309 309 309 308 307 307 306 305 305 305 305 305 306 306 306 306 306 305 304 303 302 301 299 298 296 295 293 292 291 290 288 287 286 284 282 279 276 273 271 270 271 272
282 286 288 283 280 281 283 284 283 280 275 270 265 261 259 262 267 271 274 276 279 283 286 288 291 293 296 299 302 305 306 308 308 309 309 309 308 308 308 308 308 308 309 308 308 307 307 307 307 307 307 307 307 307 308 308 308 308 308 307 307 306 305 304 302 301 299 297 295 294 292 290 288 287 286 285 283 282 280 277 274 271 268 268 269
281 284 284 280 280 282 284 283 280 276 273 269 265 262 262 266 271 275 278 280 284 286 288 291 295 299 301 304 306 308 310 310 311 311 310 309 309 308 308 308 308 308 308 308 308 308 309 309 308 308 308 309 309 310 310 310 310 310 310 310 309 308 307 306 304 303 301 299 297 295 292 290 288 286 284 282 281 280 279 277 275 273 269 266 266
280 282 280 279 279 281 281 278 275 273 270 267 266 265 266 270 274 277 280 283 286 289 293 297 301 304 306 308 310 311 311 311 312 312 310 309 308 308 308 307 308 308 309 309 310 311 311 310 310 310 311 311 312 313 313 313 313 312 312 312 311 310 309 307 305 304 301 299 297 295 293 290 287 285 282 280 279 277 276 275 273 272 270 267 264
277 279 278 278 278 278 277 274 270 267 265 264 265 266 269 272 275 277 281 286 291 295 299 303 307 309 311 313 314 314 314 314 312 311 310 309 308 307 307 308 309 310 311 312 311 311 310 310 311 312 313 313 314 314 314 315 315 315 314 313 312 311 310 308 306 304 302 299 297 294 292 289 287 284 282 279 276 274 273 272 271 269 268 267 264
275 279 278 278 277 276 274 270 266 264 264 264 264 266 267 270 275 280 286 292 296 301 305 308 311 313 314 316 317 318 317 315 313 312 310 310 309 309 309 310 311 312 312 312 312 312 312 313 314 314 315 315 316 316 317 317 317 316 316 315 313 311 310 308 306 304 301 299 297 295 292 289 287 284 281 278 275 272 270 268 267 266 265 264 263
275 278 278 276 272 271 271 271 271 269 265 260 257 261 266 272 279 286 292 296 301 305 309 311 313 315 317 318 319 318 317 315 314 313 312 312 312 312 312 312 313 313 313 314 314 315 315 316 317 317 317 317 318 318 318 318 318 317 316 315 313 312 310 308 305 304 302 301 299 297 295 292 289 286 282 279 276 272 269 266 263 262 261 260 260
273 276 276 273 269 270 274 276 277 270 258 253 256 264 271 278 285 291 296 300 305 308 311 313 316 318 319 319 318 317 316 315 315 315 314 313 313 313 313 314 314 315 315 316 317 317 318 318 319 318 318 318 319 319 319 319 319 318 317 316 314 312 310 309 308 307 305 304 302 299 296 293 290 288 284 281 277 273 270 266 262 259 258 257 256
270 273 273 271 269 269 270 268 265 260 258 260 265 272 277 282 289 294 299 303 307 310 312 316 318 319 319 318 318 317 316 316 315 315 314 314 314 313 313 314 315 316 316 317 317 317 318 318 319 319 319 319 319 320 321 321 320 319 318 317 315 314 313 313 312 312 310 308 305 302 299 296 292 289 286 282 279 275 271 268 264 259 255 253 252
269 273 271 266 266 269 268 263 260 262 264 265 269 275 279 284 291 296 300 304 307 311 315 317 318 319 318 318 317 317 316 315 315 314 314 314 315 315 315 315 316 317 317 317 317 318 319 320 320 320 320 320 321 322 323 323 322 321 319 318 317 317 317 317 317 315 314 312 309 306 303 300 296 292 288 283 279 276 273 269 265 261 256 252 249
269 272 266 258 261 270 274 267 261 261 261 263 269 274 279 286 293 297 300 304 309 313 316 317 318 318 317 317 317 317 316 315 315 315 315 315 316 316 317 317 317 318 319 319 320 320 321 321 321 321 322 323 324 324 325 325 324 322 321 320 320 321 321 321 320 318 317 315 313 310 306 302 298 294 290 285 280 276 272 269 266 263 259 254 249
268 266 259 255 256 261 264 260 256 255 257 262 269 275 281 287 292 296 300 306 310 314 315 316 316 316 316 317 317 317 316 316 316 316 317 317 317 317 318 319 319 319 320 321 321 322 322 323 323 323 324 325 326 326 327 327 326 325 324 324 324 325 324 323 322 322 322 322 319 315 310 305 301 297 292 287 282 277 272 269 265 263 260 256 251
264 256 253 255 256 254 251 249 249 250 256 263 270 276 281 286 291 296 302 307 310 312 314 315 315 315 316 317 317 317 317 317 317 317 319 319 319 319 319 320 320 320 322 323 323 323 324 324 324 326 327 328 328 329 329 329 328 328 327 328 328 327 326 326 326 326 327 328 325 320 314 310 307 304 300 294 286 279 274 270 265 262 260 257 254
257 250 251 257 259 254 245 242 245 250 257 264 270 275 280 285 292 298 302 306 308 310 312 313 314 315 317 318 318 318 318 318 319 320 320 320 320 320 320 320 321 321 322 324 324 324 325 326 327 329 330 331 331 331 331 331 331 330 330 330 330 329 330 329 328 330 332 333 329 324 320 318 315 312 311 307 297 285 276 271 267 262 259 256 254
255 251 251 256 256 248 239 238 244 251 258 263 269 274 279 286 293 298 302 305 307 309 311 313 315 316 318 319 319 319 320 321 322 321 321 321 321 320 320 321 322 322 323 324 326 326 326 327 329 331 333 333 333 333 333 333 332 332 332 332 333 333 332 331 331 333 335 334 329 323 321 321 318 316 316 316 312 301 286 276 271 265 260 256 253
254 254 255 255 248 240 236 238 245 252 258 263 268 274 281 289 295 299 302 305 307 309 311 313 316 317 318 319 320 321 323 323 323 323 322 322 321 321 322 322 322 323 323 325 326 327 327 328 331 334 335 336 336 335 334 334 333 333 333 335 336 335 334 334 333 334 335 334 329 324 322 322 320 319 317 315 314 312 304 290 277 269 263 257 252
254 257 257 252 243 238 238 241 248 254 258 263 269 277 284 290 296 300 303 306 308 309 312 314 316 318 319 321 322 323 324 324 324 324 323 322 322 322 322 322 323 323 324 326 326 327 328 330 334 336 337 338 337 336 335 334 334 335 337 338 337 337 337 336 334 333 335 335 331 326 324 323 322 322 321 317 312 310 311 306 293 279 267 259 252
258 259 254 246 240 239 240 244 251 255 258 264 271 279 286 292 297 301 305 307 309 311 313 315 317 319 321 322 323 324 324 324 324 324 323 323 323 323 322 322 322 323 325 326 326 327 329 332 336 338 339 340 338 337 335 334 335 337 339 339 339 340 339 337 334 334 336 336 334 329 327 326 324 323 324 322 315 307 306 309 307 296 279 265 254
259 254 245 240 238 240 244 249 253 255 259 266 273 280 287 294 298 302 306 309 312 313 314 316 318 320 322 324 324 324 324 324 325 324 323 323 323 323 322 322 322 324 326 326 325 327 331 334 337 339 341 341 339 337 336 336 336 338 339 341 341 341 340 338 337 337 337 337 335 331 329 328 326 325 325 324 320 311 304 304 308 307 296 277 261
252 244 237 236 239 244 250 252 253 256 261 267 274 282 288 294 299 303 308 311 313 314 315 317 320 322 324 325 324 324 324 325 325 324 324 324 323 322 322 322 323 325 326 326 326 328 332 335 338 340 342 341 340 338 337 336 336 337 339 342 342 342 340 340 340 340 338 337 336 335 333 331 329 326 325 324 322 317 310 304 302 305 306 294 275
244 238 236 239 244 249 252 252 253 256 261 268 275 282 289 294 299 304 309 312 314 315 316 317 321 324 324 324 324 325 325 325 325 325 324 324 323 322 322 322 325 326 326 326 327 330 333 336 339 341 342 342 340 339 337 335 335 336 338 341 342 341 341 343 343 340 340 340 339 337 335 333 331 328 326 325 323 320 315 309 302 299 302 302 291
240 238 240 245 250 252 253 253 254 257 262 269 276 283 290 295 300 305 309 313 314 316 317 318 322 324 324 324 325 326 326 326 325 325 324 323 322 321 321 323 325 326 326 326 329 332 334 337 339 341 343 342 340 338 336 335 334 335 337 339 340 341 342 344 343 342 342 343 340 337 335 333 331 330 328 325 323 320 317 314 308 300 296 297 298
239 240 244 250 254 255 254 253 254 258 263 270 277 284 290 295 300 305 309 313 315 317 318 319 321 323 324 325 326 326 326 325 325 324 323 322 321 321 321 323 325 326 327 328 330 332 334 336 339 341 343 342 341 338 335 334 334 334 335 337 339 341 343 344 344 344 344 343 341 339 339 336 332 330 328 326 323 320 316 313 311 306 297 291 291
240 244 249 255 256 255 253 253 255 260 265 272 278 284 290 295 299 304 308 312 315 317 318 318 320 323 324 325 325 325 325 325 324 323 322 321 321 320 321 322 325 327 328 329 330 332 334 335 338 341 343 342 340 338 334 333 333 333 334 335 337 340 342 343 345 346 345 344 344 343 341 339 335 332 330 329 327 322 317 312 308 305 301 291 285
244 250 254 258 257 255 253 253 256 261 266 273 279 284 290 293 297 302 307 311 314 316 316 316 318 322 324 325 325 325 325 324 324 323 321 321 320 320 320 322 325 328 329 330 331 332 333 335 338 341 343 342 340 337 334 332 332 333 333 334 335 338 341 343 346 348 347 346 346 344 342 341 338 334 333 332 330 327 322 315 307 301 296 290 283
249 254 256 258 257 255 253 254 257 261 267 274 279 283 288 291 295 300 304 309 312 314 314 314 317 321 323 324 324 324 324 323 323 322 320 320 320 320 320 322 325 328 330 331 332 333 334 335 337 341 343 343 340 337 333 332 332 333 333 333 334 337 340 342 345 348 348 347 347 346 344 342 339 335 333 332 330 327 324 319 312 303 293 286 281
252 255 257 258 257 255 254 255 258 262 268 273 278 283 287 289 293 298 303 306 310 312 312 312 315 319 322 322 323 323 323 323 322 321 320 319 319 320 321 323 326 329 331 332 333 333 334 335 338 341 343 343 340 338 335 333 332 332 333 333 334 336 339 342 345 347 348 348 347 347 345 342 340 337 333 331 328 325 320 317 312 306 297 288 281
253 255 257 258 257 256 255 256 259 263 268 273 278 282 286 288 291 296 300 304 307 309 309 310 312 316 320 321 322 322 322 322 322 321 319 318 319 320 321 323 326 329 331 332 333 334 335 335 337 341 342 343 341 339 337 334 333 333 333 333 334 336 339 343 345 346 347 348 348 347 346 344 342 339 336 332 329 325 320 314 310 305 299 291 281
253 255 257 258 258 257 256 257 260 264 268 273 277 281 284 287 290 294 298 301 304 306 307 307 309 314 318 319 320 320 320 321 321 320 318 318 319 321 322 324 326 328 330 332 332 333 334 335 337 340 342 343 343 341 339 337 335 334 334 334 334 336 340 343 344 344 346 347 348 348 348 346 344 342 339 336 332 328 322 316 309 305 300 293 284
253 256 257 258 258 258 258 259 261 265 269 273 276 279 283 286 289 293 296 299 302 304 304 304 307 312 316 318 318 318 319 320 320 319 318 318 319 321 323 323 325 327 329 330 331 332 334 335 337 339 341 342 343 343 342 339 337 335 334 334 334 336 340 342 343 344 345 346 347 348 350 349 347 344 340 337 334 331 327 322 316 309 303 297 289
256 258 259 260 261 261 261 262 263 266 270 273 276 279 281 285 288 291 295 298 300 301 301 301 305 309 313 315 315 316 317 318 319 319 319 319 319 320 321 322 323 325 327 329 330 332 333 335 336 338 340 342 343 344 343 341 338 335 334 334 336 338 339 341 342 344 345 346 347 348 350 350 349 346 343 339 335 333 331 328 325 318 310 300 292
262 263 264 265 265 265 266 266 267 269 271 274 276 278 281 284 286 289 293 296 297 297 298 299 302 305 309 311 312 313 315 316 317 318 319 320 319 320 320 321 322 323 325 327 329 330 332 335 336 337 339 340 342 344 343 341 339 336 336 336 337 339 339 340 342 343 345 346 347 348 350 351 350 348 346 342 338 336 334 334 332 327 319 307 296
265 267 269 270 270 270 269 269 269 271 272 274 275 277 280 282 285 288 291 292 293 295 296 297 299 301 305 308 309 311 314 315 315 316 318 320 320 320 320 320 320 321 323 325 327 329 331 334 335 336 338 340 342 342 342 341 340 339 338 337 338 339 340 340 341 343 345 347 348 349 350 351 350 350 349 345 341 340 339 339 339 335 328 319 308
264 266 270 272 273 272 271 271 271 272 273 273 275 276 279 281 283 287 289 290 291 293 294 295 296 298 301 304 305 308 311 313 313 313 315 318 319 320 320 319 319 319 320 323 325 327 329 332 334 336 337 339 341 341 341 342 342 340 339 338 338 339 340 340 341 343 345 347 348 349 350 351 351 350 349 347 345 343 343 342 342 339 334 326 318
264 265 268 270 271 272 272 272 272 273 273 274 275 277 278 280 283 285 286 287 289 291 292 293 294 295 297 300 302 304 308 310 311 311 313 315 317 319 319 318 317 317 318 319 322 324 326 330 333 335 337 338 339 341 342 342 341 339 338 338 338 339 340 341 343 344 346 347 348 349 350 351 351 350 350 349 348 346 345 345 345 344 340 334 326
267 268 269 270 270 269 269 269 271 272 274 275 276 276 277 278 280 283 284 285 288 289 290 291 292 292 294 296 299 301 304 306 308 310 311 313 315 317 318 318 317 316 316 317 319 322 325 328 332 334 335 337 339 340 341 341 339 338 338 338 339 339 340 342 344 344 345 347 348 349 350 350 351 351 350 351 351 349 346 346 346 345 343 340 335
272 271 271 272 273 270 267 268 269 269 270 274 276 277 277 277 278 280 282 284 286 288 288 289 290 290 291 294 297 299 301 303 305 307 310 312 313 315 317 318 318 316 315 315 316 320 323 326 330 332 334 336 338 339 338 338 338 338 338 339 339 339 340 343 344 345 346 347 348 349 350 350 350 351 352 352 352 352 350 347 346 345 344 342 340
277 276 275 278 280 276 270 268 268 266 268 273 277 278 278 277 277 279 280 282 284 286 286 287 288 288 289 292 295 297 299 301 303 305 306 308 310 312 313 316 317 316 315 313 314 316 320 324 327 330 333 335 335 334 334 336 338 339 340 339 339 340 342 344 345 345 346 347 348 349 350 351 351 351 352 354 354 354 353 351 349 348 347 346 345
280 282 283 284 285 283 277 271 267 270 277 282 283 282 279 276 275 277 280 282 283 283 284 285 286 287 288 291 293 295 297 298 301 302 303 305 308 310 310 312 314 315 314 313 312 314 318 322 325 329 331 331 331 331 333 335 338 339 340 340 340 342 344 344 345 346 346 347 349 349 349 351 352 352 352 354 356 357 357 354 352 352 352 351 350
Height
5847 5847 5846 5846 5845 5844 5844 5844 5844 5844 5844 5845 5845 5844 5844 5843 5843 5843 5843 5841 5839 5839 5839 5838 5838 5838 5837 5837 5836 5835 5834 5834 5833 5833 5832 5830 5829 5828 5827 5826 5824 5822 5820 5819 5817 5816 5814 5812 5810 5809 5807 5806 5804 5803 5801 5800 5798 5797 5795 5793 5791 5790 5789 5788 5786 5784 5782 5781 5780 5779 5778 5777 5776 5775 5774 5773 5772 5772 5771 5770 5769 5768 5767 5766 5766
5846 5846 5845 5844 5844 5843 5842 5842 5842 5843 5842 5843 5843 5842 5842 5842 5841 5842 5841 5840 5839 5838 5838 5838 5837 5836 5836 5835 5834 5834 5833 5832 5831 5831 5830 5829 5827 5826 5825 5823 5822 5820 5818 5816 5815 5813 5811 5809 5808 5806 5805 5803 5802 5800 5799 5797 5795 5794 5792 5790 5788 5787 5786 5785 5783 5782 5780 5778 5778 5777 5775 5774 5773 5772 5771 5770 5769 5768 5767 5767 5766 5765 5765 5764 5763
5845 5844 5844 5843 5842 5842 5841 5841 5840 5840 5840 5840 5840 5840 5840 5840 5840 5840 5839 5839 5838 5837 5837 5836 5835 5835 5834 5833 5833 5832 5831 5830 5829 5828 5828 5828 5826 5824 5822 5821 5819 5818 5816 5814 5813 5811 5809 5807 5805 5803 5802 5800 5799 5797 5796 5794 5792 5791 5789 5788 5786 5785 5784 5782 5781 5779 5777 5776 5775 5774 5772 5771 5769 5769 5768 5767 5766 5765 5764 5763 5763 5762 5761 5761 5760
5843 5842 5842 5842 5841 5840 5840 5839 5839 5838 5838 5838 5838 5838 5838 5838 5838 5837 5837 5837 5837 5836 5835 5835 5834 5833 5833 5832 5831 5830 5829 5828 5827 5826 5825 5825 5824 5823 5821 5819 5817 5815 5814 5813 5811 5809 5807 5805 5803 5801 5799 5797 5796 5794 5792 5790 5789 5788 5786 5785 5783 5782 5781 5780 5778 5776 5775 5773 5772 5771 5769 5767 5766 5766 5764 5764 5763 5762 5761 5760 5759 5759 5758 5758 5757
5841 5840 5841 5840 5840 5839 5838 5838 5837 5837 5836 5836 5836 5836 5836 5836 5835 5835 5835 5835 5835 5834 5833 5833 5832 5832 5831 5830 5830 5829 5828 5827 5826 5825 5823 5823 5822 5821 5820 5818 5817 5814 5812 5810 5809 5807 5805 5803 5801 5799 5797 5794 5793 5791 5789 5788 5786 5785 5783 5782 5780 5779 5778 5776 5775 5773 5772 5770 5769 5768 5766 5764 5763 5763 5761 5760 5759 5758 5758 5757 5756 5755 5755 5754 5754
5838 5838 5838 5838 5838 5837 5837 5836 5835 5835 5835 5835 5834 5834 5834 5834 5834 5833 5833 5833 5833 5832 5832 5831 5831 5830 5830 5829 5829 5828 5827 5826 5825 5823 5822 5821 5820 5818 5817 5815 5814 5813 5810 5808 5806 5804 5802 5800 5798 5796 5794 5792 5790 5788 5786 5785 5783 5782 5780 5779 5777 5776 5774 5773 5772 5770 5769 5767 5766 5765 5763 5761 5760 5759 5758 5757 5755 5754 5754 5753 5752 5752 5751 5750 5750
5836 5836 5836 5836 5836 5836 5835 5835 5834 5834 5833 5833 5833 5833 5832 5832 5832 5832 5832 5831 5831 5831 5830 5830 5829 5829 5829 5828 5827 5826 5825 5824 5823 5822 5821 5819 5818 5816 5814 5812 5811 5809 5808 5806 5804 5802 5799 5797 5795 5793 5791 5789 5787 5785 5784 5782 5781 5779 5778 5776 5774 5773 5771 5769 5768 5767 5765 5764 5762 5761 5760 5757 5756 5755 5754 5753 5752 5751 5750 5749 5748 5748 5747 5746 5746
5835 5835 5835 5835 5835 5834 5834 5833 5833 5832 5832 5832 5831 5831 5831 5831 5830 5830 5830 5830 5830 5829 5829 5828 5828 5828 5827 5826 5826 5825 5824 5823 5821 5820 5819 5818 5816 5814 5812 5810 5808 5806 5804 5803 5801 5799 5796 5794 5792 5790 5788 5786 5784 5783 5781 5779 5778 5776 5775 5773 5771 5769 5768 5766 5764 5763 5761 5760 5758 5757 5756 5754 5752 5751 5750 5749 5748 5747 5746 5745 5744 5744 5743 5743 5742
5833 5833 5834 5833 5833 5833 5832 5831 5831 5830 5830 5830 5830 5829 5829 5829 5829 5829 5829 5828 5828 5828 5827 5827 5827 5826 5826 5825 5824 5823 5822 5821 5820 5818 5817 5815 5814 5812 5810 5808 5806 5804 5801 5799 5797 5795 5793 5791 5789 5787 5785 5783 5781 5780 5778 5776 5775 5773 5771 5770 5768 5766 5764 5762 5761 5759 5757 5755 5754 5753 5751 5750 5748 5747 5746 5744 5744 5743 5742 5740 5739 5739 5739 5739 5738
5832 5832 5832 5831 5831 5830 5830 5829 5829 5829 5828 5828 5828 5827 5827 5827 5827 5827 5827 5827 5827 5826 5826 5826 5825 5825 5824 5823 5822 5821 5820 5819 5818 5816 5815 5813 5811 5809 5807 5805 5803 5801 5799 5796 5794 5792 5790 5788 5786 5784 5782 5780 5778 5777 5775 5773 5771 5770 5768 5766 5764 5762 5761 5759 5757 5755 5753 5751 5749 5748 5746 5745 5744 5743 5741 5740 5739 5738 5737 5736 5735 5734 5734 5734 5734
5830 5830 5830 5829 5829 5828 5828 5827 5827 5827 5826 5826 5826 5826 5826 5826 5826 5826 5826 5826 5826 5825 5825 5824 5824 5823 5822 5821 5820 5819 5818 5817 5816 5814 5812 5810 5809 5807 5805 5802 5800 5798 5796 5794 5791 5789 5787 5785 5783 5781 5779 5777 5776 5774 5772 5770 5768 5766 5764 5762 5760 5758 5756 5754 5752 5750 5748 5747 5745 5743 5742 5740 5738 5737 5736 5735 5734 5733 5732 5731 5730 5730 5729 5729 5729
5829 5828 5827 5827 5827 5827 5826 5826 5825 5825 5824 5824 5824 5824 5825 5825 5825 5825 5825 5825 5824 5824 5824 5823 5822 5821 5821 5820 5819 5818 5816 5815 5813 5811 5809 5808 5806 5804 5802 5800 5798 5796 5793 5791 5788 5786 5784 5781 5780 5778 5776 5775 5773 5771 5769 5767 5765 5763 5761 5758 5756 5754 5752 5750 5748 5746 5744 5742 5740 5738 5736 5735 5733 5731 5730 5729 5728 5728 5727 5726 5725 5724 5724 5723 5724
5827 5826 5825 5825 5825 5825 5825 5824 5823 5823 5823 5823 5823 5823 5823 5823 5824 5824 5824 5823 5823 5823 5822 5821 5821 5820 5819 5818 5817 5816 5814 5812 5810 5809 5807 5805 5803 5801 5799 5797 5795 5793 5790 5788 5785 5783 5781 5779 5777 5775 5773 5772 5770 5768 5766 5764 5761 5759 5757 5754 5752 5750 5747 5745 5743 5741 5739 5737 5735 5733 5731 5729 5728 5726 5724 5723 5722 5721 5721 5720 5720 5719 5719 5718 5718
5825 5824 5824 5823 5823 5823 5823 5822 5822 5821 5821 5821 5821 5821 5822 5822 5822 5822 5822 5822 5821 5821 5820 5820 5819 5818 5817 5816 5815 5813 5811 5810 5808 5806 5804 5803 5801 5799 5797 5795 5792 5790 5787 5785 5783 5780 5778 5776 5774 5772 5770 5769 5767 5765 5763 5760 5758 5755 5753 5750 5748 5746 5743 5741 5738 5736 5733 5731 5729 5727 5725 5724 5722 5720 5718 5716 5715 5715 5714 5714 5713 5713 5713 5713 5712
5823 5822 5822 5822 5822 5822 5821 5821 5820 5820 5819 5819 5819 5820 5820 5820 5821 5820 5820 5820 5820 5819 5818 5818 5817 5816 5815 5814 5813 5811 5809 5807 5805 5804 5802 5800 5798 5796 5794 5791 5789 5787 5784 5782 5780 5778 5775 5773 5771 5770 5768 5766 5763 5761 5759 5756 5754 5751 5749 5746 5744 5741 5739 5736 5733 5730 5727 5725 5722 5720 5718 5716 5715 5713 5712 5710 5709 5708 5707 5707 5707 5706 5707 5707 5706
5820 5820 5820 5820 5820 5820 5819 5819 5819 5818 5818 5817 5817 5818 5819 5819 5819 5819 5819 5818 5818 5817 5816 5816 5815 5814 5812 5811 5810 5809 5807 5805 5803 5801 5799 5797 5795 5793 5791 5788 5786 5784 5782 5779 5777 5775 5773 5771 5769 5767 5765 5762 5760 5757 5755 5752 5750 5747 5745 5743 5740 5737 5734 5730 5727 5724 5721 5718 5715 5713 5710 5708 5707 5705 5704 5703 5701 5700 5700 5699 5699 5699 5700 5700 5700
5819 5819 5818 5818 5818 5818 5817 5817 5817 5816 5816 5816 5816 5817 5817 5817 5817 5817 5817 5816 5816 5815 5814 5813 5812 5811 5810 5808 5807 5806 5805 5803 5801 5799 5797 5795 5793 5790 5788 5785 5783 5781 5779 5776 5774 5772 5770 5768 5766 5764 5761 5759 5756 5754 5751 5749 5746 5743 5741 5738 5735 5731 5728 5724 5720 5717 5713 5710 5707 5704 5702 5699 5697 5696 5695 5694 5693 5693 5692 5691 5691 5692 5692 5692 5693
5817 5817 5817 5816 5816 5816 5815 5815 5814 5814 5814 5815 5815 5816 5816 5816 5816 5815 5815 5815 5814 5813 5812 5812 5810 5809 5807 5806 5804 5802 5801 5800 5798 5797 5794 5792 5790 5787 5785 5782 5780 5778 5775 5773 5771 5769 5767 5765 5763 5760 5758 5755 5753 5750 5747 5745 5742 5739 5736 5732 5729 5725 5721 5717 5713 5709 5705 5702 5698 5695 5692 5690 5688 5686 5685 5684 5683 5683 5683 5683 5682 5683 5684 5684 5685
5815 5815 5815 5815 5814 5814 5813 5813 5812 5813 5813 5814 5814 5814 5814 5814 5814 5814 5813 5813 5812 5812 5811 5810 5809 5807 5805 5804 5802 5800 5798 5797 5795 5793 5791 5789 5786 5784 5781 5779 5777 5774 5772 5770 5768 5766 5763 5761 5759 5757 5754 5752 5749 5746 5744 5741 5737 5734 5730 5726 5722 5717 5713 5709 5705 5701 5697 5693 5690 5686 5683 5680 5677 5676 5674 5673 5672 5672 5673 5673 5674 5674 5675 5676 5677
5813 5813 5813 5813 5812 5812 5811 5811 5812 5812 5812 5813 5813 5813 5813 5813 5813 5812 5812 5811 5811 5810 5809 5808 5807 5805 5804 5802 5800 5798 5796 5794 5792 5790 5788 5786 5784 5781 5779 5776 5773 5771 5769 5767 5765 5762 5760 5758 5755 5753 5751 5749 5746 5743 5740 5737 5733 5729 5724 5719 5714 5710 5705 5701 5697 5693 5689 5686 5682 5678 5674 5671 5668 5666 5664 5663 5662 5661 5662 5662 5663 5664 5665 5667 5669
5811 5811 5811 5811 5810 5810 5810 5810 5810 5811 5811 5811 5811 5812 5812 5812 5811 5811 5811 5810 5809 5809 5807 5806 5805 5803 5802 5800 5798 5796 5794 5792 5789 5787 5784 5782 5780 5779 5777 5774 5772 5769 5767 5765 5763 5761 5758 5755 5753 5751 5748 5746 5743 5739 5736 5732 5728 5723 5718 5713 5708 5702 5698 5694 5690 5686 5682 5678 5674 5670 5666 5663 5660 5657 5655 5654 5653 5652 5652 5652 5652 5654 5656 5657 5659
5809 5809 5809 5809 5809 5809 5809 5809 5809 5809 5810 5810 5810 5810 5810 5810 5810 5810 5809 5808 5808 5807 5805 5804 5803 5801 5800 5798 5796 5794 5792 5789 5787 5784 5782 5779 5777 5775 5773 5771 5770 5767 5765 5762 5760 5758 5756 5753 5750 5748 5745 5742 5739 5735 5731 5727 5723 5718 5712 5707 5701 5696 5692 5687 5683 5679 5675 5671 5666 5662 5658 5654 5651 5648 5646 5645 5643 5643 5643 5643 5643 5644 5645 5648 5650
5807 5807 5807 5807 5807 5807 5807 5807 5807 5808 5808 5809 5809 5809 5809 5809 5809 5808 5808 5807 5806 5805 5803 5802 5801 5800 5798 5796 5794 5792 5790 5787 5784 5782 5779 5777 5774 5772 5770 5768 5766 5765 5762 5760 5757 5755 5752 5750 5747 5744 5741 5738 5734 5730 5727 5722 5718 5712 5706 5700 5695 5690 5686 5681 5677 5673 5669 5665 5660 5655 5650 5646 5642 5639 5637 5635 5634 5633 5633 5634 5634 5635 5636 5638 5641
5805 5805 5805 5805 5805 5805 5805 5806 5806 5806 5807 5808 5808 5808 5808 5808 5807 5807 5806 5805 5804 5803 5802 5801 5799 5798 5796 5794 5792 5790 5787 5785 5782 5779 5777 5774 5772 5769 5767 5764 5762 5761 5760 5757 5754 5752 5750 5746 5744 5741 5738 5734 5730 5726 5722 5717 5712 5706 5700 5695 5690 5685 5680 5676 5671 5667 5662 5658 5653 5648 5643 5638 5634 5630 5628 5627 5626 5625 5624 5625 5626 5627 5628 5629 5632
5803 5803 5804 5804 5804 5804 5804 5804 5805 5805 5806 5807 5807 5807 5807 5806 5806 5805 5804 5804 5803 5802 5800 5799 5797 5796 5794 5792 5789 5787 5785 5782 5779 5777 5774 5772 5769 5767 5764 5762 5759 5757 5756 5754 5751 5749 5747 5744 5740 5737 5734 5730 5725 5721 5717 5712 5706 5700 5695 5690 5685 5681 5676 5671 5666 5661 5657 5652 5646 5641 5637 5632 5628 5624 5621 5619 5618 5617 5616 5616 5617 5618 5620 5621 5624
5801 5802 5802 5802 5802 5802 5802 5803 5803 5804 5805 5805 5805 5805 5805 5805 5804 5804 5803 5802 5801 5800 5799 5797 5796 5794 5791 5789 5787 5784 5782 5779 5776 5774 5771 5769 5767 5764 5762 5760 5757 5754 5752 5751 5748 5745 5742 5740 5737 5733 5730 5726 5721 5716 5712 5706 5701 5696 5691 5687 5682 5677 5672 5666 5661 5656 5651 5646 5640 5636 5631 5628 5624 5620 5616 5613 5611 5610 5609 5609 5609 5610 5612 5614 5616
5799 5800 5800 5800 5800 5800 5801 5801 5802 5803 5803 5804 5804 5804 5804 5803 5803 5802 5801 5800 5799 5798 5797 5795 5793 5791 5789 5787 5784 5782 5779 5776 5773 5771 5769 5766 5764 5762 5760 5757 5755 5752 5749 5748 5746 5742 5739 5736 5734 5730 5725 5721 5717 5712 5706 5702 5697 5692 5688 5684 5679 5674 5668 5662 5656 5652 5647 5641 5636 5631 5627 5624 5620 5617 5613 5610 5607 5605 5603 5603 5603 5604 5605 5607 5609
5797 5798 5798 5798 5798 5799 5799 5800 5801 5802 5802 5802 5802 5802 5802 5801 5801 5800 5799 5799 5797 5796 5795 5793 5791 5789 5786 5784 5781 5779 5776 5773 5771 5769 5766 5764 5762 5759 5757 5754 5752 5749 5747 5744 5742 5740 5737 5733 5730 5727 5722 5717 5712 5707 5702 5698 5694 5690 5686 5681 5676 5671 5665 5658 5652 5648 5644 5638 5633 5628 5624 5620 5617 5614 5610 5607 5604 5601 5599 5598 5598 5598 5599 5600 5603
5796 5796 5796 5796 5797 5797 5798 5799 5800 5800 5801 5801 5801 5800 5800 5800 5799 5798 5797 5796 5795 5794 5792 5790 5788 5786 5784 5781 5778 5776 5773 5771 5768 5766 5764 5762 5759 5757 5754 5752 5749 5747 5744 5741 5739 5737 5734 5730 5726 5723 5719 5714 5708 5703 5699 5695 5691 5687 5682 5678 5673 5668 5662 5656 5650 5644 5640 5635 5629 5625 5620 5617 5613 5610 5607 5604 5601 5598 5596 5595 5594 5594 5594 5594 5596
5794 5794 5794 5795 5795 5796 5797 5798 5798 5799 5799 5799 5799 5799 5798 5798 5797 5796 5795 5794 5793 5791 5789 5787 5785 5783 5781 5778 5776 5773 5771 5768 5766 5764 5762 5759 5757 5754 5752 5749 5747 5745 5742 5739 5736 5733 5730 5727 5723 5719 5715 5710 5705 5700 5696 5692 5688 5684 5680 5675 5671 5666 5660 5654 5648 5641 5636 5631 5626 5621 5617 5613 5609 5606 5603 5601 5598 5596 5594 5592 5591 5590 5589 5590 5591
5792 5792 5792 5793 5794 5795 5796 5796 5797 5797 5797 5797 5797 5797 5796 5795 5795 5794 5793 5792 5790 5788 5787 5785 5783 5780 5778 5775 5773 5771 5768 5766 5764 5762 5759 5757 5754 5752 5750 5747 5745 5742 5740 5737 5734 5731 5728 5724 5719 5715 5711 5707 5703 5698 5693 5688 5684 5681 5678 5674 5669 5664 5659 5653 5646 5639 5633 5628 5623 5618 5614 5610 5606 5603 5600 5598 5596 5594 5591 5589 5588 5587 5586 5586 5586
5790 5790 5791 5792 5792 5793 5794 5795 5795 5795 5795 5795 5795 5794 5794 5793 5792 5791 5790 5789 5788 5786 5784 5782 5780 5778 5775 5773 5771 5768 5766 5764 5761 5759 5757 5754 5752 5750 5747 5745 5742 5739 5737 5734 5731 5728 5725 5721 5717 5713 5708 5704 5700 5695 5690 5686 5682 5679 5675 5672 5667 5662 5657 5651 5644 5637 5631 5626 5620 5615 5611 5607 5604 5600 5597 5595 5593 5592 5589 5587 5585 5584 5583 5582 5582
5788 5789 5789 5790 5791 5792 5792 5793 5793 5793 5793 5793 5793 5792 5791 5791 5790 5789 5788 5786 5785 5783 5781 5779 5777 5775 5773 5770 5768 5766 5763 5761 5759 5757 5754 5752 5750 5748 5745 5743 5740 5737 5734 5731 5728 5725 5721 5717 5713 5710 5706 5701 5697 5692 5688 5685 5681 5677 5673 5670 5665 5660 5655 5649 5643 5637 5630 5624 5618 5613 5609 5606 5602 5598 5595 5593 5591 5589 5587 5585 5583 5582 5580 5579 5579
5786 5787 5788 5789 5789 5790 5790 5791 5791 5791 5791 5791 5790 5790 5789 5788 5787 5786 5785 5784 5782 5781 5779 5777 5774 5772 5770 5768 5766 5763 5761 5759 5756 5754 5752 5750 5748 5745 5743 5740 5738 5735 5732 5728 5725 5722 5718 5714 5710 5706 5702 5698 5694 5690 5686 5683 5679 5675 5671 5668 5664 5659 5653 5647 5642 5636 5629 5622 5617 5612 5607 5603 5600 5596 5593 5591 5589 5586 5585 5583 5582 5580 5578 5577 5576
5785 5785 5786 5787 5787 5788 5788 5788 5788 5789 5788 5788 5788 5787 5786 5785 5784 5783 5782 5781 5780 5778 5776 5774 5772 5770 5767 5765 5763 5761 5758 5756 5754 5752 5749 5747 5745 5743 5741 5738 5735 5732 5729 5726 5723 5719 5716 5712 5708 5704 5699 5696 5692 5688 5684 5680 5677 5673 5669 5666 5662 5657 5652 5646 5641 5634 5628 5621 5615 5610 5605 5601 5598 5594 5592 5589 5586 5584 5582 5580 5579 5578 5576 5575 5574
5783 5784 5784 5785 5785 5785 5786 5786 5786 5786 5786 5786 5785 5784 5783 5782 5782 5780 5779 5778 5777 5775 5773 5771 5769 5767 5765 5762 5760 5758 5756 5753 5751 5749 5747 5745 5743 5741 5738 5736 5733 5730 5727 5724 5721 5717 5714 5710 5705 5701 5697 5693 5689 5685 5682 5678 5674 5671 5667 5663 5660 5655 5650 5645 5639 5633 5626 5620 5613 5607 5603 5600 5596 5592 5589 5587 5584 5581 5579 5577 5576 5575 5574 5572 5571
5781 5782 5782 5782 5783 5783 5783 5783 5784 5783 5783 5783 5782 5781 5781 5780 5779 5778 5776 5775 5774 5772 5770 5769 5767 5765 5762 5760 5757 5755 5753 5751 5748 5746 5744 5742 5740 5738 5736 5733 5731 5728 5724 5721 5718 5715 5711 5707 5703 5699 5695 5691 5687 5683 5679 5676 5673 5669 5665 5660 5657 5653 5649 5643 5637 5631 5625 5618 5612 5606 5601 5598 5594 5591 5587 5584 5581 5579 5577 5575 5573 5571 5570 5569 5568
5779 5780 5780 5780 5780 5780 5780 5781 5781 5781 5780 5780 5779 5778 5778 5777 5776 5775 5774 5772 5771 5770 5768 5766 5764 5762 5760 5757 5755 5753 5750 5748 5746 5744 5742 5740 5738 5735 5733 5731 5728 5725 5722 5718 5715 5711 5708 5705 5701 5697 5692 5689 5685 5681 5677 5673 5670 5667 5663 5659 5655 5651 5647 5641 5636 5630 5623 5617 5611 5606 5600 5596 5592 5589 5585 5582 5579 5576 5574 5571 5569 5568 5566 5565 5564
5777 5777 5777 5777 5777 5777 5778 5778 5778 5778 5777 5777 5776 5775 5775 5774 5773 5772 5771 5770 5768 5767 5765 5763 5762 5759 5757 5755 5752 5750 5748 5746 5744 5741 5739 5737 5735 5733 5730 5728 5725 5722 5719 5716 5712 5709 5705 5702 5698 5694 5690 5686 5682 5678 5674 5671 5667 5663 5660 5657 5653 5649 5644 5639 5634 5628 5623 5616 5610 5604 5599 5594 5590 5587 5584 5580 5576 5573 5571 5568 5566 5564 5562 5561 5560
5774 5774 5774 5774 5774 5774 5775 5775 5775 5774 5774 5774 5773 5772 5772 5771 5770 5769 5768 5767 5766 5764 5762 5761 5759 5757 5755 5752 5750 5748 5745 5743 5741 5739 5737 5735 5733 5730 5728 5725 5722 5719 5716 5713 5710 5706 5703 5699 5696 5692 5688 5684 5680 5676 5672 5668 5665 5661 5657 5654 5650 5646 5642 5637 5631 5626 5622 5616 5609 5603 5598 5592 5588 5584 5581 5578 5574 5571 5568 5564 5562 5559 5557 5556 5555
5771 5771 5771 5771 5771 5771 5771 5771 5771 5771 5771 5770 5770 5769 5769 5768 5767 5766 5765 5764 5763 5761 5760 5758 5756 5754 5752 5750 5747 5745 5743 5741 5739 5736 5734 5732 5730 5727 5725 5722 5719 5716 5713 5710 5707 5704 5701 5697 5694 5690 5686 5682 5678 5674 5670 5666 5662 5659 5655 5651 5647 5643 5639 5634 5629 5624 5620 5615 5609 5602 5596 5590 5585 5581 5578 5575 5571 5568 5564 5560 5557 5554 5551 5549 5548
5768 5768 5768 5768 5768 5768 5768 5768 5768 5768 5767 5767 5766 5766 5765 5765 5764 5763 5762 5761 5760 5758 5757 5755 5753 5751 5749 5747 5745 5743 5740 5738 5736 5734 5732 5730 5727 5725 5722 5719 5717 5714 5711 5708 5705 5702 5698 5695 5691 5687 5683 5679 5675 5672 5668 5663 5659 5656 5653 5649 5645 5641 5636 5632 5628 5623 5617 5613 5607 5601 5595 5589 5583 5579 5575 5571 5567 5564 5560 5556 5552 5549 5546 5543 5540
5766 5766 5766 5766 5766 5765 5765 5765 5765 5765 5764 5764 5763 5763 5762 5761 5760 5760 5759 5758 5757 5755 5754 5752 5750 5748 5746 5744 5742 5740 5738 5736 5733 5731 5729 5727 5724 5722 5719 5717 5714 5711 5708 5705 5702 5699 5696 5692 5689 5685 5681 5677 5673 5669 5665 5661 5658 5654 5650 5647 5643 5638 5634 5630 5626 5621 5616 5610 5605 5599 5593 5587 5581 5576 5572 5568 5563 5559 5555 5551 5547 5543 5539 5535 5533
5765 5764 5764 5763 5763 5763 5763 5762 5762 5761 5761 5760 5760 5759 5758 5758 5757 5756 5755 5754 5753 5752 5750 5749 5747 5745 5744 5742 5740 5738 5735 5733 5731 5729 5726 5724 5721 5719 5716 5714 5711 5709 5706 5703 5700 5697 5693 5690 5686 5683 5679 5675 5671 5667 5663 5660 5656 5652 5648 5644 5640 5635 5631 5627 5622 5618 5614 5608 5603 5597 5591 5585 5579 5573 5568 5564 5559 5554 5550 5545 5541 5536 5531 5527 5525
5762 5761 5761 5761 5760 5760 5759 5759 5758 5758 5757 5756 5756 5755 5755 5754 5753 5752 5751 5750 5750 5748 5747 5745 5743 5742 5740 5739 5737 5735 5733 5731 5729 5726 5724 5721 5719 5716 5713 5710 5708 5706 5703 5700 5697 5694 5691 5687 5684 5680 5676 5672 5668 5664 5661 5658 5654 5650 5646 5642 5637 5633 5629 5624 5620 5615 5610 5605 5600 5595 5589 5583 5577 5570 5565 5560 5555 5550 5545 5540 5535 5530 5525 5521 5518
5758 5757 5757 5757 5756 5756 5755 5755 5754 5754 5753 5752 5752 5751 5751 5750 5749 5748 5747 5746 5746 5745 5743 5742 5740 5738 5737 5735 5734 5732 5730 5728 5726 5724 5721 5719 5716 5714 5711 5708 5705 5703 5700 5697 5694 5692 5688 5685 5681 5678 5674 5670 5666 5662 5659 5655 5651 5647 5643 5639 5635 5631 5626 5622 5617 5612 5607 5602 5597 5592 5587 5581 5574 5568 5562 5557 5551 5546 5540 5535 5530 5525 5520 5516 5513
5753 5753 5753 5753 5752 5752 5751 5751 5750 5750 5749 5748 5748 5747 5747 5746 5745 5744 5743 5742 5742 5741 5740 5738 5736 5735 5733 5732 5730 5729 5727 5725 5723 5721 5719 5716 5714 5711 5709 5706 5703 5701 5698 5695 5692 5689 5686 5682 5679 5675 5671 5667 5664 5660 5656 5652 5648 5645 5641 5637 5633 5629 5624 5620 5615 5610 5605 5600 5595 5589 5584 5578 5573 5566 5560 5554 5548 5542 5536 5531 5525 5520 5515 5511 5506
5749 5749 5749 5748 5747 5747 5746 5746 5746 5745 5745 5744 5743 5743 5742 5741 5741 5740 5739 5738 5738 5737 5735 5734 5733 5731 5729 5728 5727 5725 5724 5722 5720 5718 5716 5713 5711 5708 5706 5703 5700 5698 5695 5692 5689 5686 5682 5679 5675 5672 5668 5664 5661 5657 5654 5650 5647 5643 5639 5635 5631 5626 5622 5618 5613 5608 5604 5598 5593 5587 5581 5576 5570 5564 5558 5551 5545 5539 5532 5526 5521 5516 5510 5504 5498
5745 5744 5744 5743 5742 5742 5742 5741 5740 5740 5740 5739 5739 5738 5737 5736 5736 5735 5734 5734 5733 5732 5731 5730 5729 5727 5725 5724 5723 5721 5720 5718 5716 5714 5712 5710 5708 5705 5702 5700 5697 5694 5691 5689 5685 5682 5679 5676 5672 5669 5665 5662 5658 5655 5652 5649 5646 5642 5638 5633 5629 5625 5620 5615 5611 5606 5602 5597 5591 5585 5579 5574 5568 5562 5556 5548 5541 5535 5528 5522 5516 5511 5504 5497 5490
5741 5741 5740 5740 5739 5738 5737 5736 5735 5735 5735 5735 5734 5734 5733 5732 5731 5731 5730 5730 5729 5728 5727 5726 5725 5723 5721 5720 5719 5717 5716 5714 5713 5711 5708 5706 5704 5702 5699 5696 5693 5691 5688 5685 5682 5679 5676 5673 5670 5666 5663 5659 5656 5654 5651 5647 5643 5639 5635 5631 5627 5622 5618 5613 5609 5604 5600 5595 5589 5583 5577 5572 5566 5559 5554 5547 5539 5531 5524 5517 5511 5505 5498 5491 5484
5739 5738 5738 5737 5735 5733 5732 5731 5730 5731 5731 5730 5730 5729 5728 5727 5727 5726 5726 5725 5724 5724 5723 5722 5720 5719 5717 5716 5715 5713 5712 5710 5708 5706 5704 5702 5700 5698 5695 5693 5690 5687 5684 5681 5679 5676 5673 5670 5667 5664 5660 5658 5655 5652 5649 5645 5641 5636 5632 5628 5624 5620 5616 5611 5606 5602 5598 5593 5587 5581 5575 5570 5564 5557 5550 5545 5538 5530 5522 5514 5507 5501 5494 5486 5478